Regional Weather Roundup
Issued by NWS

Home | Current Version | Previous Version | Text Only | Print | Product List | Glossary Off
Versions: 1 2 3 4 5 6 7 8 9 10 11 12 13 14 15 16 17 18 19 20 21 22 23 24 25 26 27 28 29 30 31 32 33 34 35 36 37 38 39 40 41 42 43 44 45 46 47 48 49 50

804
ASUS45 KSLC 010110
RWRUT

UTAH REGIONAL WEATHER ROUNDUP
NATIONAL WEATHER SERVICE SALT LAKE CITY UT
700 PM MDT TUE MAY 31 2016

UTZ001>011-023>025-010200-

NORTHERN UTAH

CITY           SKY/WX    TMP DP  RH WIND       PRES   REMARKS
BRIGHAM CITY     N/A     76  30  18 NW3       30.02S
HILL AFB       SUNNY     72  36  26 VRB5      30.05F
LOGAN          MOSUNNY   72  38  29 CALM      30.03S
OGDEN          SUNNY     73  33  23 VRB5      30.03F
PROVO AIRPORT  SUNNY     75  37  25 NW14      30.01
SALT LAKE CITY MOSUNNY   76  26  15 NW9       30.02S
VERNAL         SUNNY     74  32  21 E5        29.99F
WENDOVER       SUNNY     79  30  17 SE9       30.01F
HEBER CITY     SUNNY     72  28  20 N13       30.03S
WEST JORDAN    SUNNY     72  21  15 NW14      30.05S

$$

UTZ012>022-026-027-010200-

SOUTHERN/CENTRAL UTAH

CITY           SKY/WX    TMP DP  RH WIND       PRES   REMARKS
BLANDING       PTSUNNY   80  27  14 N12G18    30.02S
BRYCE CANYON   MOSUNNY   70  19  14 NW21G26   30.12S
CEDAR CITY     SUNNY     77  24  14 N10G20    30.01F
DELTA          SUNNY     77  21  12 NW10      30.01S
HANKSVILLE     MOSUNNY   86  23  10 N6        29.88S
MILFORD        SUNNY     79  19  10 NE13G25   30.00S
MOAB/CYNLANDS  SUNNY     85  19   9 NW12      29.87F
PRICE          SUNNY     76  19  11 NW18G24   30.00S
ST GEORGE      CLEAR     93  30  10 NE14      29.80S
KANAB          MOSUNNY   84  30  14 W15G22    29.93F

$$

REGIONAL REPORTS     COLORADO/ARIZONA

CITY           SKY/WX    TMP DP  RH WIND       PRES   REMARKS
CRAIG, CO      SUNNY     69  36  29 N7        30.08R
GRAND JUNCTION CLOUDY    79  32  18 NE15      29.91S
RIFLE          MOSUNNY   75  31  19 NW8       29.98S
MONTROSE       CLOUDY    77  27  15 NW14G20   29.98R
CORTEZ         SUNNY     79  30  16 N12G18    29.96R
PAGE, AZ       SUNNY     88  21   8 NE6       29.84F
GRAND CANYON   SUNNY     74  23  15 N6        30.04S
KINGMAN        SUNNY     91  23   8 N18G25    29.83F
FLAGSTAFF      MOSUNNY   71  21  15 VRB3      30.04F

$$

REGIONAL REPORTS    NEVADA/IDAHO/WYOMING

CITY           SKY/WX    TMP DP  RH WIND       PRES   REMARKS
LAS VEGAS, NV  MOSUNNY   96  30   9 E3        29.69F HX  90
ELY            SUNNY     73  27  18 N13       30.09F
ELKO           SUNNY     79  24  13 NW10      30.05F
POCATELLO, ID  CLOUDY    71  30  21 E3        30.07F
BURLEY         SUNNY     73  35  25 CALM      30.03F
EVANSTON, WY   MOSUNNY   64  35  34 NW9       30.14S
ROCK SPRINGS   PTSUNNY   64  29  26 E3        30.10S
KEMMERER         N/A     63  28  27 W17       30.16R

$$




USA.gov is the U.S. government's official web portal to all federal, state and local government web resources and services.